Regional Weather Roundup
Issued by NWS

Home | Current Version | Previous Version | Graphics & Text | Print | Product List | Glossary On
Versions: 1 2 3 4 5 6 7 8 9 10 11 12 13 14 15 16 17 18 19 20 21 22 23 24 25 26 27 28 29 30 31 32 33 34 35 36 37 38 39 40 41 42 43 44 45 46 47 48 49 50
000
ASUS45 KTFX 260804
RWRMT
MONTANA HOURLY WEATHER ROUNDUP
NATIONAL WEATHER SERVICE GREAT FALLS MT
104 AM MST MON JAN 26 2015

NOTE: "FAIR" INDICATES FEW OR NO CLOUDS BELOW 12000 FEET WITH NO
SIGNIFICANT WEATHER AND/OR OBSTRUCTIONS TO VISIBILITY.

* THESE STATIONS ARE NOT UNDER NWS QUALITY CONTROL. THEY DO NOT
   REPORT WEATHER SUCH AS PRECIPITATION OR FOG.

MTZ001>007-043-260900-
WEST OF THE DIVIDE
CITY           SKY/WX    TMP DP  RH WIND       PRES   REMARKS
KALISPELL      FOG       25  25 100 CALM      30.17S VSB M1/4
MISSOULA       CLEAR     30  27  89 CALM      30.25S
BUTTE          PTCLDY    28  25  89 CALM      30.29F
MULLAN PASS    CLEAR     43  27  53 S8        30.21F
* ANACONDA     CLEAR     46  25  44 SW14       N/A
* ESSEX        N/A       28  27  96 N/A        N/A
* LINCOLN      N/A       28  25  89 NE1        N/A
* LOOKOUT PASS N/A       34  31  89 S2         N/A
* POLSON       N/A       40  29  65 N/A        N/A
* RONAN APT    PTCLDY    32  32 100 N/A        N/A
* SEELEY LAKE  N/A       25  24  96 E1         N/A
* THOMP F APT  PTCLDY    31  29  92 VRB4       N/A
* YAAK HILL    N/A       35  33  92 N/A        N/A
$$

MTZ008-052>055-260900-
SOUTHWEST MONTANA
CITY           SKY/WX    TMP DP  RH WIND       PRES   REMARKS
BOZEMAN        MOCLDY    30  27  89 S7        30.27S WCI  23
DILLON         CLEAR     37  27  67 S14       30.31F WCI  28
* W YELLOWSTON MOCLDY    29  28  96 N2         N/A
* THREE FORKS  PTCLDY    37  34  89 N/A        N/A
* BOULDER HILL N/A       44  21  40 S8         N/A
* MONIDA PASS  N/A       25  25 100 E5         N/A   WCI  19
* RAYNOLDS PAS N/A       30  13  49 SE17G22    N/A   WCI  18
* WHITEHALL    N/A       40  25  55 NW8        N/A   WCI  35
* WISE RIVER   N/A       30  25  82 W1         N/A
$$

MTZ009>010-012-014-046-048-049-054-260900-
EAST SLOPES AND CENTRAL MONTANA
CITY           SKY/WX    TMP DP  RH WIND       PRES   REMARKS
CUT BANK       MOCLDY    46  28  50 SW8       30.03S
GREAT FALLS    MOCLDY    55  27  34 SW20G30   30.08S
HELENA         PTCLDY    39  28  65 SW3       30.21S
MALMSTROM AFB  MOCLDY    54  27  35 SW22      30.08F
* DEARBORN     N/A       56  25  30 S23G30     N/A
* EAST GLACIER N/A       47  27  46 S12G17     N/A
* MONARCH      N/A       50  23  35 SW17       N/A
* PENDROY      N/A       48  29  48 SW2        N/A
* ROGERS PASS  N/A       45  22  40 SE8G17     N/A
* SWEET GRASS  N/A       48  28  46 W17G22     N/A
$$

MTZ011-013-016-021-035-040-045-047-050-051-260900-
NORTH CENTRAL MONTANA
CITY           SKY/WX    TMP DP  RH WIND       PRES   REMARKS
HAVRE          CLEAR     39  32  76 SW16      29.98S WCI  30
LEWISTOWN      CLEAR     43  28  56 N5        30.07R
* N BAR RANCH  CLEAR     55  27  34 W14G21    30.05R
* CHESTER      N/A       42  30  63 W9         N/A
* DENTON       N/A       48  29  48 SW19G25    N/A
* GEYSER       N/A       53  26  35 SW15G20    N/A
* JUDITH GAP   N/A       47  28  48 W18G26     N/A
* LOMA         N/A       47  32  56 SW18G26    N/A
$$

MTZ017>020-022>027-061-062-260900-
NORTHEAST MONTANA
CITY           SKY/WX    TMP DP  RH WIND       PRES   REMARKS
GLASGOW        CLEAR     36  30  79 W9        29.93S WCI  29
GLENDIVE       CLEAR     39  34  82 CALM      29.95S
JORDAN         CLEAR     36  30  79 W9        29.96F WCI  29
SIDNEY         CLOUDY    37  32  82 S6        29.92F WCI  32
WOLF POINT     PTCLDY    37  34  89 SW10      29.91F WCI  30
* BEAVER HILL  N/A       40  34  79 SW14       N/A   WCI  32
* CIRCLE       N/A       38  32  79 N/A        N/A
* LINDSAY DVD  N/A       44  33  65 W19G26     N/A
* NAVAJO       N/A       41  30  65 NW19G26    N/A
* SACO         N/A       32  31  96 SW5        N/A   WCI  27
$$

MTZ028>042-056>058-260900-
SOUTHCENTRAL AND SOUTHEAST MONTANA
CITY           SKY/WX    TMP DP  RH WIND       PRES   REMARKS
BAKER          CLEAR     36  30  79 W14       29.94F WCI  27
BILLINGS       MOCLDY    48  28  46 SW17      30.09S
LIVINGSTON     PTCLDY    48  27  44 SW31G45   30.20R
MILES CITY     CLEAR     43  32  65 W5        29.99S
* LAUREL APT   MOCLDY    43  25  49 SW14G22    N/A
* ROUNDUP APT  PTCLDY    55  27  34 W23G31     N/A
* ALZADA       N/A       40  31  70 SW8        N/A   WCI  35
* HYSHAM       N/A       48  27  44 W6         N/A
* LAME DEER    N/A       51  28  41 W14G23     N/A
* REED POINT   N/A       54  29  38 W9         N/A
* ROSCOE HILL  N/A       56  16  21 W6G14      N/A
$$

REGIONAL REPORTS...DAKOTAS
CITY           SKY/WX    TMP DP  RH WIND       PRES   REMARKS
WILLISTON      CLOUDY    37  34  89 SE5       29.87R WCI  33
DICKINSON      CLEAR     39  34  82 W14       29.85R WCI  31
CROSBY         MOCLDY    39  34  82 W15       29.84R WCI  31
WATFORD CITY   PTCLDY    39  34  82 W10G18    29.86R WCI  32
BISMARCK       PTCLDY    39  32  76 NW12      29.80R WCI  32
GRAND FORKS    PTCLDY    28  25  89 S9        29.61F WCI  19
FARGO          MOCLDY    30  27  89 S12       29.70R WCI  20
BUFFALO SD     PTCLDY    41  34  76 NW17      29.87F
RAPID CITY     PTCLDY    52  30  43 NW16      29.96R
$$

REGIONAL REPORTS...WYOMING/IDAHO/WASHINGTON
CITY           SKY/WX    TMP DP  RH WIND       PRES   REMARKS
GILLETTE       CLOUDY    43  28  56 W12       30.09S
SHERIDAN       MOCLDY    37  27  67 S3        30.10R
CODY           CLOUDY    55  21  27 W7        30.19S
YELLOWSTONE LA CLOUDY    21  19  92 CALM      30.46F
SALMON         PTCLDY    19  18  96 CALM      30.41F VSB 2
MULLAN PASS    CLEAR     43  27  53 S8        30.21S
SAND POINT     FOG       34  34 100 CALM      30.20F VSB 3/4
SPOKANE        FOG       37  37 100 NE8       30.14F VSB M1/4 WCI  31

$$



USA.gov is the U.S. government's official web portal to all federal, state and local government web resources and services.